Flag for Japan Weather past 2 weeks in Nagasaki, Japan

Now
46 °F

Cool.


Feels Like: 43 °F
Forecast: 42 / 55 °F
Wind: 5 mph from Northeast

Location: Nagasaki

Current Time: Mar 6, 2015 at 1:20:23 AM

Latest Report: Mar 6, 2015 at 12:00 AM


Visibility: N/A

Pressure: 30.17 "Hg

Humidity: 47%

Dew point: 27 °F

Location of NagasakiLocation

Historic Weather in Nagasaki — Graph

°F

Nagasaki temperature yesterday

Maximum temperature yesterday: 52 °F (at 4:00 PM)
Minimum temperature yesterday: 36 °F (at 7:00 AM)
Average temperature yesterday: 44 °F

Past Weeks' High & Low Weather Summary

 TemperatureHumidityPressure
High58 °F (Feb 22, 12:00 PM)98% (Feb 22, 9:00 AM)30.33 "Hg (Feb 22, 9:00 AM)
Low36 °F (Mar 5, 7:00 AM)35% (Feb 26, 11:00 PM)29.73 "Hg (Mar 3, 4:00 PM)
Average47 °F70%30.11 "Hg
* Reported Midnight between Feb 18 and Feb 19 — Midnight between Mar 5 and Mar 6, Nagasaki, Weather by CustomWeather, © 2015

Note: Actual official high and low records may vary slightly from our data, if they occured in-between our weather recording intervals... More about our weather records

Advertising

Nagasaki weather history for previous 24 hours

 ConditionsComfort  
Time TempWeatherWind HumidityBarometerVisibility
12:00 AM
Fri, Mar 6
46 °FCool.5 mph47%30.17 "HgN/A
11:00 PM
Thu, Mar 5
45 °FCool.3 mph53%30.17 "HgN/A
10:00 PM45 °FCool.3 mph57%30.19 "HgN/A
9:00 PM46 °FOvercast.6 mph56%30.19 "Hg12 mi
8:00 PM46 °FCool.10 mph56%30.19 "HgN/A
7:00 PM48 °FCool.8 mph52%30.16 "HgN/A
6:00 PM50 °FOvercast.2 mph48%30.14 "Hg16 mi
5:00 PM51 °FCool.10 mph47%30.12 "HgN/A
4:00 PM52 °FCool.7 mph40%30.16 "HgN/A
3:00 PM51 °FOvercast.6 mph42%30.16 "Hg12 mi
2:00 PM51 °FCool.7 mph41%30.16 "HgN/A
1:00 PM50 °FCool.9 mph43%30.18 "HgN/A
11:00 AM48 °FCool.5 mph47%30.23 "HgN/A
10:00 AM46 °FCool.5 mph50%30.24 "HgN/A
9:00 AM42 °FPassing clouds.3 mph68%30.21 "Hg16 mi
8:00 AM38 °FChilly.2 mph74%30.20 "HgN/A
7:00 AM36 °FChilly.1 mph86%30.20 "HgN/A
6:00 AM36 °FPassing clouds.1 mph77%30.18 "Hg16 mi
5:00 AM37 °FChilly.1 mph78%30.18 "HgN/A
3:00 AM39 °FPassing clouds.1 mph71%30.17 "Hg16 mi
2:00 AM40 °FChilly.2 mph68%30.18 "HgN/A
1:00 AM41 °FQuite cool.1 mph64%30.19 "HgN/A
Weather by CustomWeather, © 2015

See weather overviewHow to use our weather pages